User: anonymous   Login
Location: Academy at Carrie F Thomas
(32.8490°N, 97.2053°W)
Time: 16:27:56
(UTC+00:00)
Language:

Cosmos 1428 Rocket - Orbit

View from above orbital plane
View from above orbital plane
View from above satellite
View from above satellite

Ground track
Ground track

The orbit data is extracted from the following two-line orbital elements,

1 13758U 83001B   22145.15620586  .00000091  00000-0  74179-4 0  9995
2 13758  82.9139  38.0783 0026624 325.7758  34.1683 13.78846795980105
Epoch (UTC): 25 May 2022 03:44:56
Eccentricity: 0.0026624
inclination: 82.9139°
perigee height: 948 km
apogee height: 987 km
right ascension of ascending node: 38.0783°
argument of perigee: 325.7758°
revolutions per day: 13.78846795
mean anomaly at epoch: 34.1683°
orbit number at epoch: 98010

The dashed part of the orbit path shows where the satellite is in the earth's shadow,  

DLR